Jordan, MT

7:39 AM MDT on March 30, 2017 (GMT -0600)
Jordan

Weather History for KJDN - August, 2014

Change the Weather History Date:

Saturday, August 16, 2014

  Actual Average Record
Temperature  
Mean Temperature 72 °F 70 °F  
Max Temperature 83 °F 86 °F 104 °F (1973)
Min Temperature 60 °F 53 °F 36 °F (2012)
Degree Days  
Heating Degree Days 0 1  
Month to date heating degree days 0 13  
Since 1 June heating degree days 135 163  
Since 1 July heating degree days 5 38  
Cooling Degree Days 7 6  
Month to date cooling degree days 140 105  
Year to date cooling degree days 413 336  
Since 1 June cooling degree days 388 330  
Growing Degree Days 21 (Base 50)    
Moisture  
Dew Point 56 °F    
Average Humidity 65    
Maximum Humidity 97    
Minimum Humidity 33    
Precipitation  
Precipitation 0.00 in 0.04 in 1.17 in (1981)
Month to date precipitation 1.69 0.73  
Year to date precipitation 7.05 9.46  
Snow  
Snow 0.00 in - - ()
Month to date snowfall 0.0  
Since 1 June snowfall 0.0  
Since 1 July snowfall 0.0  
Snow Depth 0.00 in    
Sea Level Pressure  
Sea Level Pressure 29.95 in    
Wind  
Wind Speed 5 mph (West)    
Max Wind Speed 14 mph    
Max Gust Speed 18 mph    
T = Trace of Precipitation, MM = Missing Value Source: NWS Daily Summary

Daily Weather History Graph

Daily Weather History Graph

Search for Another Location

Airport or City:

Trip Planner

Search our weather history database for the weather conditions in past years. The results will help you decide how hot, cold, wet, or windy it might be!

Date:

Astronomy

Aug. 16, 2014 Rise Set
Actual Time 6:05 AM MDT 8:17 PM MDT
Civil Twilight 5:32 AM MDT 8:50 PM MDT
Nautical Twilight 4:50 AM MDT 9:32 PM MDT
Astronomical Twilight 4:03 AM MDT 10:18 PM MDT
Moon 11:32 PM MDT (8/16) 1:24 PM MDT (8/16)
Length of Visible Light 15h 18m
Length of Day
14h 11m
Waning Gibbous, 58% of the Moon is Illuminated
Aug 16
Waning Gibbous
Aug 17
Last Quarter
Aug 25
New
Sep 2
First Quarter
Sep 8
Full

Hourly Weather History & Observations

Time (MDT) Temp. Dew Point Humidity Pressure Visibility Wind Dir Wind Speed Gust Speed Precip Events Conditions
12:48 AM 62.1 °F 60.1 °F 93% 29.96 in - ESE 8.1 mph - 0.08 in   Unknown
1:48 AM 60.1 °F 59.0 °F 96% 29.94 in - Calm Calm - N/A   Unknown
3:48 AM 62.1 °F 60.1 °F 93% 29.97 in - WSW 13.8 mph - N/A   Unknown
4:48 AM 62.1 °F 60.1 °F 93% 29.96 in - West 5.8 mph - N/A   Unknown
5:48 AM 63.0 °F 59.0 °F 87% 29.94 in - WSW 8.1 mph - N/A   Unknown
6:48 AM 63.0 °F 60.1 °F 90% 29.96 in - North 6.9 mph - N/A   Unknown
7:48 AM 64.0 °F 60.1 °F 87% 29.96 in - North 4.6 mph - N/A   Unknown
8:48 AM 66.0 °F 60.1 °F 81% 29.97 in - ENE 4.6 mph - N/A   Unknown
9:48 AM 68.0 °F 60.1 °F 76% 30.01 in - West 4.6 mph - N/A   Unknown
10:48 AM 73.0 °F 57.9 °F 59% 29.99 in - Variable 5.8 mph - N/A   Unknown
11:48 AM 75.0 °F 59.0 °F 57% 29.98 in - SW 8.1 mph - N/A   Unknown
12:48 PM 79.0 °F 55.0 °F 44% 29.96 in - WNW 5.8 mph - N/A   Unknown
1:48 PM 80.1 °F 51.1 °F 36% 29.94 in - Variable 4.6 mph - N/A   Unknown
2:48 PM 78.1 °F 53.1 °F 42% 29.95 in - Variable 3.5 mph - N/A   Unknown
3:48 PM 79.0 °F 50.0 °F 36% 29.93 in - SSW 5.8 mph - N/A   Unknown
4:48 PM 81.0 °F 51.1 °F 35% 29.92 in - WSW 5.8 mph - N/A   Unknown
5:48 PM 82.9 °F 50.0 °F 32% 29.90 in - WNW 8.1 mph - N/A   Unknown
6:48 PM 82.0 °F 50.0 °F 33% 29.90 in - West 10.4 mph - N/A   Unknown
7:48 PM 78.1 °F 53.1 °F 42% 29.91 in - WNW 4.6 mph - N/A   Unknown
9:48 PM 66.9 °F 57.9 °F 73% 29.94 in - Calm Calm - N/A   Unknown
10:48 PM 64.0 °F 57.9 °F 80% 29.93 in - Calm Calm - N/A   Unknown
11:48 PM 62.1 °F 57.9 °F 86% 29.94 in - Calm Calm - N/A   Unknown